{"data":{"norad_id":65310,"epoch":"2026-05-25T04:22:57.308736Z","epoch_age_seconds":69134,"freshness":"FRESH","line1":"1 65310U 25187F   26145.18260774 -.00000097  00000+0  57376-4 0  9999","line2":"2 65310  50.0117 288.2921 0000603  97.5798 262.5143 13.29322027 36640","mean_motion":13.29322027,"eccentricity":6.03e-5,"inclination_deg":50.0117,"raan_deg":288.2921,"arg_perigee_deg":97.5798,"mean_anomaly_deg":262.5143,"bstar":5.7376e-5,"rev_number":3664,"period_min":108.32589626531,"perigee_km":1148.8676644835,"apogee_km":1149.7754759871,"semimajor_km":7527.4585702353,"source":"CELESTRAK","updated_at":"2026-05-25T13:38:05.300086Z"}}